Regional Weather Roundup
Issued by NWS

Current Version | Previous Version | Text Only | Print | Product List | Glossary On
Versions: 1 2 3 4 5 6 7 8 9 10 11 12 13 14 15 16 17 18 19 20 21 22 23 24 25 26 27 28 29 30 31 32 33 34 35 36 37 38 39 40 41 42 43 44 45 46 47 48 49 50
000
ASUS44 KFWD 310715
RWRTX
NORTH TEXAS HOURLY WEATHER ROUNDUP
NATIONAL WEATHER SERVICE FORT WORTH TX
200 AM CDT THU JUL 31 2014

NOTE: "FAIR" INDICATES FEW OR NO CLOUDS BELOW 12,000 FEET WITH NO
SIGNIFICANT WEATHER AND/OR OBSTRUCTIONS TO VISIBILITY.

TXZ118-119-310800-
DALLAS/FORT WORTH METROPLEX

CITY           SKY/WX    TMP DP  RH WIND       PRES   REMARKS
DFW AIRPORT    CLOUDY    75  69  81 E12       29.94F
DALLAS LOVE    CLOUDY    75  71  87 N12       29.96S
FTW MEACHAM    MOCLDY    82  71  69 SE8       29.93F
DAL-EXECUTIVE  CLOUDY    81  71  71 VRB5      29.95R
FTW-ALLIANCE   CLOUDY    75  70  84 E5        29.94F
FTW-NAS-JRB    CLOUDY    85  68  56 E7        29.98R
FTW-SPINKS     MOCLDY    82  70  67 SE7       29.95R
ARLINGTON      CLOUDY    81  70  69 E5        29.94R
GRAND PRAIRIE  CLOUDY    81  69  66 E3        29.96R
ADDISON        TSTM      71  71 100 N7G23     29.99R
MESQUITE       CLOUDY    77  70  79 SE7       29.95S
LANCASTER      CLOUDY    78  69  74 SE6       29.94F
$$

TXZ091>094-102>105-117-120-121-131>134-310800-
NORTH CENTRAL TEXAS

CITY           SKY/WX    TMP DP  RH WIND       PRES   REMARKS
SHRMAN/DENISON HVY RAIN  72  69  91 SE7       29.98F
GAINESVILLE    HVY RAIN  71  71  99 SW3       30.00R
BOWIE          MOCLDY    73  72  95 CALM      29.98F
BRIDGEPORT     MOCLDY    75  67  76 NE3       29.98S
DECATUR        CLOUDY    73  68  84 CALM      29.97S
DENTON         CLOUDY    71  70  96 NW3       29.95R
MCKINNEY       LGT RAIN  72  71  97 S5        29.98F
ROCKWALL       TSTM      72  71  97 NE16      29.97R
TERRELL        CLOUDY    82  69  64 SE8       29.97R
WAXAHACHIE     CLOUDY    79  69  70 S9        29.94F
CLEBURNE       MOCLDY    81  73  78 SE12      29.95R
GRANBURY       MOCLDY    84  71  64 S9        29.93S
$$

TXZ083>090-098>101-113>116-127>130-139>142-154-155-310800-
WESTERN NORTH TEXAS

CITY           SKY/WX    TMP DP  RH WIND       PRES   REMARKS
WICHITA FALLS  LGT RAIN  71  67  87 N14       30.00S
WF-KICKAPOO    CLOUDY    72  67  85 N10       30.02S
VERNON         CLOUDY    71  64  77 N15       30.06S
ABILENE        CLOUDY    76  69  79 N17G28    30.02R
ABILENE-DYESS  CLOUDY    73  68  83 N16G22    30.03R
BRECKENRIDGE   MOCLDY    77  67  69 N13G18    29.98R
GRAHAM         CLOUDY    73  67  82 N14G21    29.98S
MINERAL WELLS  CLOUDY    81  69  67 NE3       29.94S
STEPHENVILLE   MOCLDY    81  67  61 S10       29.98R
COMANCHE       MOCLDY    80  63  55 S6        29.96R
BROWNWOOD      MOCLDY    75  57  53 CALM      29.97R
COLEMAN        CLOUDY    82  55  39 NW7       29.98R
BRADY          CLEAR     81  57  44 S7        29.98S
$$

TXZ143>147-156>162-174-175-310800-
CENTRAL TEXAS

CITY           SKY/WX    TMP DP  RH WIND       PRES   REMARKS
WACO           MOCLDY    82  70  66 S16       29.94R
WACO-MCGREGOR  MOCLDY    81  66  61 S17G23    29.96S
HILLSBORO      CLOUDY    82  70  68 S12G20    29.94R
CORSICANA      PTCLDY    80  71  74 S13       29.95F
MEXIA          PTCLDY    79  72  78 S10G16    29.94S
HEARNE         MOCLDY   N/A N/A N/A SE13G18   29.96F
CAMERON        PTCLDY    80  72  75 S14       29.96S
TEMPLE         CLOUDY    81  63  54 SE18G24   29.96S
KILLEEN        PTCLDY    81  61  50 S14       29.95F
KILLEEN-SKYLRK PTCLDY    79  63  57 SE16      29.96S
FORT HOOD      PTCLDY    81  65  58 SE12      29.96R
GATESVILLE     MOCLDY    81  66  61 S8        29.98R
HAMILTON       MOCLDY    82  63  52 S14G23    29.97R
LAMPASAS       MOCLDY    79  65  61 S7        29.96S
$$

TXZ095>097-106>112-122>126-135>138-148>153-164>167-310800-
EAST TEXAS

CITY           SKY/WX    TMP DP  RH WIND       PRES   REMARKS
PARIS          CLOUDY    68  63  83 SE13      29.99F
SULPHUR SPRNGS RAIN      71  69  93 SE14      29.99F
CLARKSVILLE    CLOUDY    69  68  95 E7        30.00S
MOUNT PLEASANT CLOUDY    70  68  93 SE6       30.01F
GILMER         DRIZZLE   73  68  83 SE7       30.01F
MINEOLA        RAIN      73  68  83 CALM      29.99S
TYLER          CLOUDY    78  66  66 SE14      29.97F
LONGVIEW       CLOUDY    75  64  68 SE8       29.99F
MARSHALL       CLOUDY    76  67  73 SE3       30.03F
ATHENS         CLOUDY    75  70  83 SE7       29.94F
JACKSONVILLE   MOCLDY    76  67  73 SE6       30.01F
HENDERSON      CLOUDY    74  65  75 SE6       30.00F
NACOGDOCHES    PTCLDY    73  64  73 SE6       30.01F
LUFKIN         CLEAR     77  69  76 SE6       29.99F
$$

SUPPLEMENTAL OBSERVATIONS (CENTRAL)

CITY           SKY/WX    TMP DP  RH WIND       PRES   REMARKS
LAKE TEXOMA      N/A     70  70 100 E3          N/A
CADDO GRASSLND   N/A     70  66  88 SW6         N/A
PAT MAYSE LAKE   N/A     66  63  88 E10         N/A
GREENVILLE       N/A     72  66  83 SE14        N/A
CEDAR HILL       N/A     81  70  69 SE1G15      N/A
PALESTINE        N/A     75  70  83 S2          N/A
MCGREGOR         N/A     81  64  57 S17G26      N/A
TEMPLE           N/A     79  64  61 S15         N/A
$$

SUPPLEMENTAL OBSERVATIONS (WEST)

CITY           SKY/WX    TMP DP  RH WIND       PRES   REMARKS
POSSUM KINGDOM   N/A     75  66  73 N9G17       N/A
LBJ GRASSLAND    N/A     73  66  78 N3          N/A
GRANBURY         N/A     82  70  65 S12         N/A
HAMBY            N/A     73  66  78 N12G21      N/A
IVIE RESERVOIR   N/A     82  55  39 S3          N/A
COLORADO BEND    N/A     81  59  47 S7G16       N/A
$$

SUPPLEMENTAL OBSERVATIONS (EAST)

CITY           SKY/WX    TMP DP  RH WIND       PRES   REMARKS
CADDO LAKE       N/A     70  64  83 CALM        N/A
HENDERSON        N/A     73  64  73 CALM        N/A
$$

SUPPLEMENTAL OBSERVATIONS ARE A COLLECTION OF AUTOMATED INSTRUMENTS
THAT ARE MAINTAINED BY A VARIETY OF FEDERAL AND STATE AGENCIES.
CERTAIN ELEMENTS...SUCH AS HUMIDITY VALUES AND SUSTAINED WIND
SPEEDS...MAY BE APPROXIMATED.



USA.gov is the U.S. government's official web portal to all federal, state and local government web resources and services.